Year,Month,Day,Hour,Minute,Value (Times are PST for temperature in C)
2017,09,04,00,00,20.80
2017,09,04,00,01,20.80
2017,09,04,00,02,20.80
2017,09,04,00,03,20.90
2017,09,04,00,04,20.90
2017,09,04,00,05,20.90
2017,09,04,00,06,20.90
2017,09,04,00,07,21.00
2017,09,04,00,08,21.00
2017,09,04,00,09,21.00
2017,09,04,00,10,21.10
2017,09,04,00,11,21.10
2017,09,04,00,12,21.10
2017,09,04,00,13,21.10
2017,09,04,00,14,21.10
2017,09,04,00,15,21.10
2017,09,04,00,16,21.10
2017,09,04,00,17,21.10
2017,09,04,00,18,21.10
2017,09,04,00,19,21.10
2017,09,04,00,20,21.10
2017,09,04,00,21,21.10
2017,09,04,00,22,21.10
2017,09,04,00,23,21.10
2017,09,04,00,24,21.00
2017,09,04,00,25,21.00
2017,09,04,00,26,20.90
2017,09,04,00,27,20.90
2017,09,04,00,28,20.90
2017,09,04,00,29,20.90
2017,09,04,00,30,20.90
2017,09,04,00,31,20.80
2017,09,04,00,32,20.80
2017,09,04,00,33,20.80
2017,09,04,00,34,20.80
2017,09,04,00,35,20.80
2017,09,04,00,36,20.80
2017,09,04,00,37,20.80
2017,09,04,00,38,20.80
2017,09,04,00,39,20.70
2017,09,04,00,40,20.70
2017,09,04,00,41,20.70
2017,09,04,00,42,20.80
2017,09,04,00,43,20.80
2017,09,04,00,44,20.80
2017,09,04,00,45,20.80
2017,09,04,00,46,20.80
2017,09,04,00,47,20.90
2017,09,04,00,48,20.90
2017,09,04,00,49,20.90
2017,09,04,00,50,20.90
2017,09,04,00,51,20.90
2017,09,04,00,52,20.90
2017,09,04,00,53,20.90
2017,09,04,00,54,20.90
2017,09,04,00,55,20.90
2017,09,04,00,56,20.90
2017,09,04,00,57,20.80
2017,09,04,00,58,20.80
2017,09,04,00,59,20.80
2017,09,04,01,00,20.80
2017,09,04,01,01,20.70
2017,09,04,01,02,20.70
2017,09,04,01,03,20.70
2017,09,04,01,04,20.70
2017,09,04,01,05,20.70
2017,09,04,01,06,20.70
2017,09,04,01,07,20.70
2017,09,04,01,08,20.60
2017,09,04,01,09,20.60
2017,09,04,01,10,20.60
2017,09,04,01,11,20.70
2017,09,04,01,12,20.70
2017,09,04,01,13,20.70
2017,09,04,01,14,20.70
2017,09,04,01,15,20.70
2017,09,04,01,16,20.70
2017,09,04,01,17,20.70
2017,09,04,01,18,20.80
2017,09,04,01,19,20.80
2017,09,04,01,20,20.80
2017,09,04,01,21,20.80
2017,09,04,01,22,20.70
2017,09,04,01,23,20.70
2017,09,04,01,24,20.70
2017,09,04,01,25,20.70
2017,09,04,01,26,20.60
2017,09,04,01,27,20.60
2017,09,04,01,28,20.60
2017,09,04,01,29,20.60
2017,09,04,01,30,20.60
2017,09,04,01,31,20.50
2017,09,04,01,32,20.50
2017,09,04,01,33,20.50
2017,09,04,01,34,20.50
2017,09,04,01,35,20.50
2017,09,04,01,36,20.50
2017,09,04,01,37,20.60
2017,09,04,01,38,20.60
2017,09,04,01,39,20.60
2017,09,04,01,40,20.60
2017,09,04,01,41,20.60
2017,09,04,01,42,20.60
2017,09,04,01,43,20.60
2017,09,04,01,44,20.60
2017,09,04,01,45,20.60
2017,09,04,01,46,20.60
2017,09,04,01,47,20.60
2017,09,04,01,48,20.50
2017,09,04,01,49,20.50
2017,09,04,01,50,20.40
2017,09,04,01,51,20.40
2017,09,04,01,52,20.40
2017,09,04,01,53,20.30
2017,09,04,01,54,20.30
2017,09,04,01,55,20.20
2017,09,04,01,56,20.20
2017,09,04,01,57,20.10
2017,09,04,01,58,20.10
2017,09,04,01,59,20.10
2017,09,04,02,00,20.00
2017,09,04,02,01,20.00
2017,09,04,02,02,19.90
2017,09,04,02,03,19.90
2017,09,04,02,04,19.80
2017,09,04,02,05,19.80
2017,09,04,02,06,19.80
2017,09,04,02,07,19.80
2017,09,04,02,08,19.80
2017,09,04,02,09,19.80
2017,09,04,02,10,19.80
2017,09,04,02,11,19.80
2017,09,04,02,12,19.80
2017,09,04,02,13,19.70
2017,09,04,02,14,19.70
2017,09,04,02,15,19.70
2017,09,04,02,16,19.70
2017,09,04,02,17,19.60
2017,09,04,02,18,19.60
2017,09,04,02,19,19.60
2017,09,04,02,20,19.60
2017,09,04,02,21,19.60
2017,09,04,02,22,19.50
2017,09,04,02,23,19.50
2017,09,04,02,24,19.40
2017,09,04,02,25,19.40
2017,09,04,02,26,19.40
2017,09,04,02,27,19.40
2017,09,04,02,28,19.40
2017,09,04,02,29,19.30
2017,09,04,02,30,19.30
2017,09,04,02,31,19.30
2017,09,04,02,32,19.30
2017,09,04,02,33,19.40
2017,09,04,02,34,19.40
2017,09,04,02,35,19.40
2017,09,04,02,36,19.40
2017,09,04,02,37,19.40
2017,09,04,02,38,19.40
2017,09,04,02,39,19.40
2017,09,04,02,40,19.40
2017,09,04,02,41,19.40
2017,09,04,02,42,19.40
2017,09,04,02,43,19.40
2017,09,04,02,44,19.40
2017,09,04,02,45,19.40
2017,09,04,02,46,19.30
2017,09,04,02,47,19.30
2017,09,04,02,48,19.30
2017,09,04,02,49,19.30
2017,09,04,02,50,19.30
2017,09,04,02,51,19.20
2017,09,04,02,52,19.20
2017,09,04,02,53,19.20
2017,09,04,02,54,19.20
2017,09,04,02,55,19.20
2017,09,04,02,56,19.20
2017,09,04,02,57,19.20
2017,09,04,02,58,19.20
2017,09,04,02,59,19.20
2017,09,04,03,00,19.20
2017,09,04,03,01,19.20
2017,09,04,03,02,19.20
2017,09,04,03,03,19.20
2017,09,04,03,04,19.20
2017,09,04,03,05,19.10
2017,09,04,03,06,19.20
2017,09,04,03,07,19.20
2017,09,04,03,08,19.10
2017,09,04,03,09,19.10
2017,09,04,03,10,19.10
2017,09,04,03,11,19.10
2017,09,04,03,12,19.10
2017,09,04,03,13,19.10
2017,09,04,03,14,19.00
2017,09,04,03,15,19.00
2017,09,04,03,16,19.00
2017,09,04,03,17,18.90
2017,09,04,03,18,18.90
2017,09,04,03,19,18.90
2017,09,04,03,20,18.90
2017,09,04,03,21,18.90
2017,09,04,03,22,18.90
2017,09,04,03,23,18.90
2017,09,04,03,24,18.90
2017,09,04,03,25,18.90
2017,09,04,03,26,18.90
2017,09,04,03,27,18.90
2017,09,04,03,28,18.90
2017,09,04,03,29,19.00
2017,09,04,03,30,19.00
2017,09,04,03,31,19.00
2017,09,04,03,32,19.00
2017,09,04,03,33,19.00
2017,09,04,03,34,19.00
2017,09,04,03,35,19.00
2017,09,04,03,36,19.00
2017,09,04,03,37,19.00
2017,09,04,03,38,19.00
2017,09,04,03,39,19.00
2017,09,04,03,40,18.90
2017,09,04,03,41,18.90
2017,09,04,03,42,18.90
2017,09,04,03,43,18.90
2017,09,04,03,44,18.90
2017,09,04,03,45,18.90
2017,09,04,03,46,18.80
2017,09,04,03,47,18.80
2017,09,04,03,48,18.80
2017,09,04,03,49,18.80
2017,09,04,03,50,18.80
2017,09,04,03,51,18.80
2017,09,04,03,52,18.70
2017,09,04,03,53,18.70
2017,09,04,03,54,18.70
2017,09,04,03,55,18.70
2017,09,04,03,56,18.70
2017,09,04,03,57,18.70
2017,09,04,03,58,18.80
2017,09,04,03,59,18.80
2017,09,04,04,00,18.90
2017,09,04,04,01,18.90
2017,09,04,04,02,18.90
2017,09,04,04,03,18.90
2017,09,04,04,04,19.00
2017,09,04,04,05,19.10
2017,09,04,04,06,19.10
2017,09,04,04,07,19.10
2017,09,04,04,08,19.10
2017,09,04,04,09,19.10
2017,09,04,04,10,19.10
2017,09,04,04,11,19.10
2017,09,04,04,12,19.20
2017,09,04,04,13,19.10
2017,09,04,04,14,19.10
2017,09,04,04,15,19.20
2017,09,04,04,16,19.20
2017,09,04,04,17,19.20
2017,09,04,04,18,19.20
2017,09,04,04,19,19.20
2017,09,04,04,20,19.20
2017,09,04,04,21,19.20
2017,09,04,04,22,19.20
2017,09,04,04,23,19.20
2017,09,04,04,24,19.10
2017,09,04,04,25,19.10
2017,09,04,04,26,19.10
2017,09,04,04,27,19.10
2017,09,04,04,28,19.10
2017,09,04,04,29,19.10
2017,09,04,04,30,19.10
2017,09,04,04,31,19.10
2017,09,04,04,32,19.00
2017,09,04,04,33,18.90
2017,09,04,04,34,18.90
2017,09,04,04,35,18.90
2017,09,04,04,36,18.80
2017,09,04,04,37,18.80
2017,09,04,04,38,18.70
2017,09,04,04,39,18.70
2017,09,04,04,40,18.60
2017,09,04,04,41,18.60
2017,09,04,04,42,18.50
2017,09,04,04,43,18.50
2017,09,04,04,44,18.40
2017,09,04,04,45,18.40
2017,09,04,04,46,18.30
2017,09,04,04,47,18.30
2017,09,04,04,48,18.30
2017,09,04,04,49,18.30
2017,09,04,04,50,18.30
2017,09,04,04,51,18.20
2017,09,04,04,52,18.20
2017,09,04,04,53,18.20
2017,09,04,04,54,18.20
2017,09,04,04,55,18.20
2017,09,04,04,56,18.20
2017,09,04,04,57,18.20
2017,09,04,04,58,18.20
2017,09,04,04,59,18.20
2017,09,04,05,00,18.20
2017,09,04,05,01,18.20
2017,09,04,05,02,18.10
2017,09,04,05,03,18.10
2017,09,04,05,04,18.10
2017,09,04,05,05,18.10
2017,09,04,05,06,18.00
2017,09,04,05,07,18.00
2017,09,04,05,08,18.00
2017,09,04,05,09,17.90
2017,09,04,05,10,17.90
2017,09,04,05,11,17.90
2017,09,04,05,12,17.90
2017,09,04,05,13,17.80
2017,09,04,05,14,17.80
2017,09,04,05,15,17.80
2017,09,04,05,16,17.80
2017,09,04,05,17,17.80
2017,09,04,05,18,17.80
2017,09,04,05,19,17.80
2017,09,04,05,20,17.80
2017,09,04,05,21,17.70
2017,09,04,05,22,17.70
2017,09,04,05,23,17.70
2017,09,04,05,24,17.70
2017,09,04,05,25,17.70
2017,09,04,05,26,17.70
2017,09,04,05,27,17.70
2017,09,04,05,28,17.70
2017,09,04,05,29,17.70
2017,09,04,05,30,17.70
2017,09,04,05,31,17.70
2017,09,04,05,32,17.70
2017,09,04,05,33,17.70
2017,09,04,05,34,17.70
2017,09,04,05,35,17.70
2017,09,04,05,36,17.70
2017,09,04,05,37,17.60
2017,09,04,05,38,17.60
2017,09,04,05,39,17.60
2017,09,04,05,40,17.60
2017,09,04,05,41,17.60
2017,09,04,05,42,17.60
2017,09,04,05,43,17.50
2017,09,04,05,44,17.60
2017,09,04,05,45,17.50
2017,09,04,05,46,17.50
2017,09,04,05,47,17.50
2017,09,04,05,48,17.50
2017,09,04,05,49,17.40
2017,09,04,05,50,17.40
2017,09,04,05,51,17.40
2017,09,04,05,52,17.40
2017,09,04,05,53,17.40
2017,09,04,05,54,17.40
2017,09,04,05,55,17.40
2017,09,04,05,56,17.40
2017,09,04,05,57,17.40
2017,09,04,05,58,17.40
2017,09,04,05,59,17.40
2017,09,04,06,00,17.40
2017,09,04,06,01,17.40
2017,09,04,06,02,17.40
2017,09,04,06,03,17.40
2017,09,04,06,04,17.40
2017,09,04,06,05,17.40
2017,09,04,06,06,17.40
2017,09,04,06,07,17.40
2017,09,04,06,08,17.30
2017,09,04,06,09,17.30
2017,09,04,06,10,17.30
2017,09,04,06,11,17.30
2017,09,04,06,12,17.30
2017,09,04,06,13,17.40
2017,09,04,06,14,17.40
2017,09,04,06,15,17.40
2017,09,04,06,16,17.40
2017,09,04,06,17,17.50
2017,09,04,06,18,17.50
2017,09,04,06,19,17.60
2017,09,04,06,20,17.60
2017,09,04,06,21,17.60
2017,09,04,06,22,17.60
2017,09,04,06,23,17.60
2017,09,04,06,24,17.60
2017,09,04,06,25,17.60
2017,09,04,06,26,17.50
2017,09,04,06,27,17.50
2017,09,04,06,28,17.50
2017,09,04,06,29,17.40
2017,09,04,06,30,17.40
2017,09,04,06,31,17.40
2017,09,04,06,32,17.40
2017,09,04,06,33,17.30
2017,09,04,06,34,17.30
2017,09,04,06,35,17.30
2017,09,04,06,36,17.30
2017,09,04,06,37,17.30
2017,09,04,06,38,17.30
2017,09,04,06,39,17.30
2017,09,04,06,40,17.40
2017,09,04,06,41,17.40
2017,09,04,06,42,17.40
2017,09,04,06,43,17.40
2017,09,04,06,44,17.40
2017,09,04,06,45,17.50
2017,09,04,06,46,17.50
2017,09,04,06,47,17.50
2017,09,04,06,48,17.50
2017,09,04,06,49,17.60
2017,09,04,06,50,17.60
2017,09,04,06,51,17.60
2017,09,04,06,52,17.60
2017,09,04,06,53,17.60
2017,09,04,06,54,17.60
2017,09,04,06,55,17.70
2017,09,04,06,56,17.60
2017,09,04,06,57,17.60
2017,09,04,06,58,17.60
2017,09,04,06,59,17.60
2017,09,04,07,00,17.50
2017,09,04,07,01,17.50
2017,09,04,07,02,17.60
2017,09,04,07,03,17.50
2017,09,04,07,04,17.50
2017,09,04,07,05,17.40
2017,09,04,07,06,17.40
2017,09,04,07,07,17.40
2017,09,04,07,08,17.40
2017,09,04,07,09,17.30
2017,09,04,07,10,17.30
2017,09,04,07,11,17.30
2017,09,04,07,12,17.30
2017,09,04,07,13,17.20
2017,09,04,07,14,17.20
2017,09,04,07,15,17.20
2017,09,04,07,16,17.20
2017,09,04,07,17,17.20
2017,09,04,07,18,17.20
2017,09,04,07,19,17.20
2017,09,04,07,20,17.20
2017,09,04,07,21,17.20
2017,09,04,07,22,17.20
2017,09,04,07,23,17.20
2017,09,04,07,24,17.20
2017,09,04,07,25,17.20
2017,09,04,07,26,17.30
2017,09,04,07,27,17.30
2017,09,04,07,28,17.30
2017,09,04,07,29,17.40
2017,09,04,07,30,17.40
2017,09,04,07,31,17.50
2017,09,04,07,32,17.60
2017,09,04,07,33,17.70
2017,09,04,07,34,17.80
2017,09,04,07,35,17.80
2017,09,04,07,36,17.90
2017,09,04,07,37,18.00
2017,09,04,07,38,18.10
2017,09,04,07,39,18.20
2017,09,04,07,40,18.30
2017,09,04,07,41,18.40
2017,09,04,07,42,18.50
2017,09,04,07,43,18.60
2017,09,04,07,44,18.60
2017,09,04,07,45,18.70
2017,09,04,07,46,18.80
2017,09,04,07,47,18.90
2017,09,04,07,48,19.00
2017,09,04,07,49,19.10
2017,09,04,07,50,19.30
2017,09,04,07,51,19.40
2017,09,04,07,52,19.50
2017,09,04,07,53,19.60
2017,09,04,07,54,19.80
2017,09,04,07,55,19.90
2017,09,04,07,56,19.90
2017,09,04,07,57,20.00
2017,09,04,07,58,20.00
2017,09,04,07,59,20.20
2017,09,04,08,00,20.30
2017,09,04,08,01,20.40
2017,09,04,08,02,20.40
2017,09,04,08,03,20.50
2017,09,04,08,04,20.60
2017,09,04,08,05,20.70
2017,09,04,08,06,20.70
2017,09,04,08,07,20.80
2017,09,04,08,08,21.00
2017,09,04,08,09,21.10
2017,09,04,08,10,21.20
2017,09,04,08,11,21.20
2017,09,04,08,12,21.30
2017,09,04,08,13,21.40
2017,09,04,08,14,21.50
2017,09,04,08,15,21.60
2017,09,04,08,16,21.70
2017,09,04,08,17,21.80
2017,09,04,08,18,21.80
2017,09,04,08,19,21.90
2017,09,04,08,20,21.90
2017,09,04,08,21,22.00
2017,09,04,08,22,22.10
2017,09,04,08,23,22.20
2017,09,04,08,24,22.20
2017,09,04,08,25,22.30
2017,09,04,08,26,22.30
2017,09,04,08,27,22.40
2017,09,04,08,28,22.40
2017,09,04,08,29,22.40
2017,09,04,08,30,22.40
2017,09,04,08,31,22.40
2017,09,04,08,32,22.40
2017,09,04,08,33,22.50
2017,09,04,08,34,22.50
2017,09,04,08,35,22.60
2017,09,04,08,36,22.60
2017,09,04,08,37,22.70
2017,09,04,08,38,22.70
2017,09,04,08,39,22.70
2017,09,04,08,40,22.80
2017,09,04,08,41,22.80
2017,09,04,08,42,22.90
2017,09,04,08,43,23.00
2017,09,04,08,44,23.00
2017,09,04,08,45,23.10
2017,09,04,08,46,23.20
2017,09,04,08,47,23.20
2017,09,04,08,48,23.20
2017,09,04,08,49,23.30
2017,09,04,08,50,23.30
2017,09,04,08,51,23.20
2017,09,04,08,52,23.10
2017,09,04,08,53,23.10
2017,09,04,08,54,23.10
2017,09,04,08,55,23.10
2017,09,04,08,56,23.00
2017,09,04,08,57,23.00
2017,09,04,08,58,22.90
2017,09,04,08,59,22.90
2017,09,04,09,00,22.90
2017,09,04,09,01,22.90
2017,09,04,09,02,22.90
2017,09,04,09,03,22.90
2017,09,04,09,04,22.80
2017,09,04,09,05,22.90
2017,09,04,09,06,22.90
2017,09,04,09,07,23.00
2017,09,04,09,08,23.00
2017,09,04,09,09,23.10
2017,09,04,09,10,23.00
2017,09,04,09,11,23.00
2017,09,04,09,12,23.00
2017,09,04,09,13,23.00
2017,09,04,09,14,23.00
2017,09,04,09,15,22.90
2017,09,04,09,16,22.90
2017,09,04,09,17,22.80
2017,09,04,09,18,22.80
2017,09,04,09,19,22.90
2017,09,04,09,20,22.90
2017,09,04,09,21,22.90
2017,09,04,09,22,23.00
2017,09,04,09,23,23.10
2017,09,04,09,24,23.10
2017,09,04,09,25,23.20
2017,09,04,09,26,23.30
2017,09,04,09,27,23.40
2017,09,04,09,28,23.40
2017,09,04,09,29,23.30
2017,09,04,09,30,23.30
2017,09,04,09,31,23.30
2017,09,04,09,32,23.30
2017,09,04,09,33,23.20
2017,09,04,09,34,23.20
2017,09,04,09,35,23.20
2017,09,04,09,36,23.20
2017,09,04,09,37,23.30
2017,09,04,09,38,23.40
2017,09,04,09,39,23.50
2017,09,04,09,40,23.50
2017,09,04,09,41,23.50
2017,09,04,09,42,23.50
2017,09,04,09,43,23.60
2017,09,04,09,44,23.60
2017,09,04,09,45,23.60
2017,09,04,09,46,23.60
2017,09,04,09,47,23.60
2017,09,04,09,48,23.60
2017,09,04,09,49,23.70
2017,09,04,09,50,23.80
2017,09,04,09,51,23.80
2017,09,04,09,52,23.80
2017,09,04,09,53,23.90
2017,09,04,09,54,23.90
2017,09,04,09,55,24.00
2017,09,04,09,56,24.10
2017,09,04,09,57,24.20
2017,09,04,09,58,24.30
2017,09,04,09,59,24.40
2017,09,04,10,00,24.40
2017,09,04,10,01,24.50
2017,09,04,10,02,24.60
2017,09,04,10,03,24.70
2017,09,04,10,04,24.80
2017,09,04,10,05,24.80
2017,09,04,10,06,24.80
2017,09,04,10,07,24.80
2017,09,04,10,08,24.80
2017,09,04,10,09,24.80
2017,09,04,10,10,24.80
2017,09,04,10,11,24.80
2017,09,04,10,12,24.80
2017,09,04,10,13,24.80
2017,09,04,10,14,24.80
2017,09,04,10,15,24.80
2017,09,04,10,16,24.80
2017,09,04,10,17,24.80
2017,09,04,10,18,24.80
2017,09,04,10,19,24.80
2017,09,04,10,20,24.70
2017,09,04,10,21,24.60
2017,09,04,10,22,24.50
2017,09,04,10,23,24.40
2017,09,04,10,24,24.40
2017,09,04,10,25,24.50
2017,09,04,10,26,24.60
2017,09,04,10,27,24.70
2017,09,04,10,28,24.80
2017,09,04,10,29,25.00
2017,09,04,10,30,25.10
2017,09,04,10,31,25.20
2017,09,04,10,32,25.30
2017,09,04,10,33,25.40
2017,09,04,10,34,25.50
2017,09,04,10,35,25.60
2017,09,04,10,36,25.70
2017,09,04,10,37,25.90
2017,09,04,10,38,26.00
2017,09,04,10,39,26.20
2017,09,04,10,40,26.40
2017,09,04,10,41,26.50
2017,09,04,10,42,26.60
2017,09,04,10,43,26.70
2017,09,04,10,44,26.70
2017,09,04,10,45,26.90
2017,09,04,10,46,26.90
2017,09,04,10,47,26.80
2017,09,04,10,48,26.60
2017,09,04,10,49,26.50
2017,09,04,10,50,26.50
2017,09,04,10,51,26.50
2017,09,04,10,52,26.50
2017,09,04,10,53,26.50
2017,09,04,10,54,26.50
2017,09,04,10,55,26.50
2017,09,04,10,56,26.50
2017,09,04,10,57,26.40
2017,09,04,10,58,26.20
2017,09,04,10,59,26.10
2017,09,04,11,00,26.10
2017,09,04,11,01,26.00
2017,09,04,11,02,26.00
2017,09,04,11,03,25.90
2017,09,04,11,04,25.90
2017,09,04,11,05,25.90
2017,09,04,11,06,25.90
2017,09,04,11,07,25.90
2017,09,04,11,08,25.90
2017,09,04,11,09,26.00
2017,09,04,11,10,26.10
2017,09,04,11,11,26.20
2017,09,04,11,12,26.30
2017,09,04,11,13,26.50
2017,09,04,11,14,26.60
2017,09,04,11,15,26.60
2017,09,04,11,16,26.70
2017,09,04,11,17,26.80
2017,09,04,11,18,26.80
2017,09,04,11,19,26.90
2017,09,04,11,20,26.90
2017,09,04,11,21,26.90
2017,09,04,11,22,26.90
2017,09,04,11,23,26.90
2017,09,04,11,24,26.90
2017,09,04,11,25,27.00
2017,09,04,11,26,27.00
2017,09,04,11,27,27.10
2017,09,04,11,28,27.10
2017,09,04,11,29,27.10
2017,09,04,11,30,27.10
2017,09,04,11,31,27.10
2017,09,04,11,32,27.10
2017,09,04,11,33,27.10
2017,09,04,11,34,27.10
2017,09,04,11,35,27.20
2017,09,04,11,36,27.30
2017,09,04,11,37,27.30
2017,09,04,11,38,27.30
2017,09,04,11,39,27.40
2017,09,04,11,40,27.40
2017,09,04,11,41,27.50
2017,09,04,11,42,27.50
2017,09,04,11,43,27.40
2017,09,04,11,44,27.40
2017,09,04,11,45,27.40
2017,09,04,11,46,27.40
2017,09,04,11,47,27.40
2017,09,04,11,48,27.30
2017,09,04,11,49,27.40
2017,09,04,11,50,27.40
2017,09,04,11,51,27.60
2017,09,04,11,52,27.70
2017,09,04,11,53,27.80
2017,09,04,11,54,27.80
2017,09,04,11,55,27.70
2017,09,04,11,56,27.60
2017,09,04,11,57,27.40
2017,09,04,11,58,27.30
2017,09,04,11,59,27.30
2017,09,04,12,00,27.30
2017,09,04,12,01,27.20
2017,09,04,12,02,27.20
2017,09,04,12,03,27.10
2017,09,04,12,04,27.10
2017,09,04,12,05,27.10
2017,09,04,12,06,27.20
2017,09,04,12,07,27.20
2017,09,04,12,08,27.30
2017,09,04,12,09,27.40
2017,09,04,12,10,27.50
2017,09,04,12,11,27.50
2017,09,04,12,12,27.70
2017,09,04,12,13,27.80
2017,09,04,12,14,27.80
2017,09,04,12,15,27.80
2017,09,04,12,16,27.70
2017,09,04,12,17,27.70
2017,09,04,12,18,27.60
2017,09,04,12,19,27.60
2017,09,04,12,20,27.50
2017,09,04,12,21,27.40
2017,09,04,12,22,27.30
2017,09,04,12,23,27.30
2017,09,04,12,24,27.30
2017,09,04,12,25,27.40
2017,09,04,12,26,27.50
2017,09,04,12,27,27.60
2017,09,04,12,28,27.70
2017,09,04,12,29,27.80
2017,09,04,12,30,27.80
2017,09,04,12,31,27.90
2017,09,04,12,32,27.90
2017,09,04,12,33,27.90
2017,09,04,12,34,27.90
2017,09,04,12,35,28.10
2017,09,04,12,36,28.10
2017,09,04,12,37,28.10
2017,09,04,12,38,28.00
2017,09,04,12,39,27.90
2017,09,04,12,40,27.80
2017,09,04,12,41,27.90
2017,09,04,12,42,27.90
2017,09,04,12,43,27.90
2017,09,04,12,44,27.80
2017,09,04,12,45,27.80
2017,09,04,12,46,27.90
2017,09,04,12,47,27.90
2017,09,04,12,48,27.90
2017,09,04,12,49,28.00
2017,09,04,12,50,28.00
2017,09,04,12,51,28.10
2017,09,04,12,52,28.20
2017,09,04,12,53,28.30
2017,09,04,12,54,28.50
2017,09,04,12,55,28.60
2017,09,04,12,56,28.80
2017,09,04,12,57,28.90
2017,09,04,12,58,29.00
2017,09,04,12,59,29.10
2017,09,04,13,00,29.10
2017,09,04,13,01,29.10
2017,09,04,13,02,29.10
2017,09,04,13,03,28.80
2017,09,04,13,04,28.60
2017,09,04,13,05,28.40
2017,09,04,13,06,28.30
2017,09,04,13,07,28.00
2017,09,04,13,08,27.60
2017,09,04,13,09,27.30
2017,09,04,13,10,27.20
2017,09,04,13,11,27.10
2017,09,04,13,12,27.10
2017,09,04,13,13,27.10
2017,09,04,13,14,27.10
2017,09,04,13,15,27.20
2017,09,04,13,16,27.30
2017,09,04,13,17,27.40
2017,09,04,13,18,27.60
2017,09,04,13,19,27.70
2017,09,04,13,20,27.80
2017,09,04,13,21,28.00
2017,09,04,13,22,28.00
2017,09,04,13,23,28.00
2017,09,04,13,24,27.90
2017,09,04,13,25,27.90
2017,09,04,13,26,27.90
2017,09,04,13,27,27.80
2017,09,04,13,28,27.60
2017,09,04,13,29,27.40
2017,09,04,13,30,27.30
2017,09,04,13,31,27.30
2017,09,04,13,32,27.30
2017,09,04,13,33,27.30
2017,09,04,13,34,27.30
2017,09,04,13,35,27.30
2017,09,04,13,36,27.30
2017,09,04,13,37,27.20
2017,09,04,13,38,27.20
2017,09,04,13,39,27.20
2017,09,04,13,40,27.30
2017,09,04,13,41,27.30
2017,09,04,13,42,27.50
2017,09,04,13,43,27.50
2017,09,04,13,44,27.50
2017,09,04,13,45,27.50
2017,09,04,13,46,27.50
2017,09,04,13,47,27.50
2017,09,04,13,48,27.40
2017,09,04,13,49,27.50
2017,09,04,13,50,27.60
2017,09,04,13,51,27.70
2017,09,04,13,52,27.90
2017,09,04,13,53,28.00
2017,09,04,13,54,28.20
2017,09,04,13,55,28.30
2017,09,04,13,56,28.40
2017,09,04,13,57,28.50
2017,09,04,13,58,28.60
2017,09,04,13,59,28.60
2017,09,04,14,00,28.50
2017,09,04,14,01,28.30
2017,09,04,14,02,28.10
2017,09,04,14,03,27.90
2017,09,04,14,04,27.80
2017,09,04,14,05,27.60
2017,09,04,14,06,27.40
2017,09,04,14,07,27.20
2017,09,04,14,08,27.20
2017,09,04,14,09,27.20
2017,09,04,14,10,27.20
2017,09,04,14,11,27.20
2017,09,04,14,12,27.20
2017,09,04,14,13,27.30
2017,09,04,14,14,27.30
2017,09,04,14,15,27.40
2017,09,04,14,16,27.50
2017,09,04,14,17,27.60
2017,09,04,14,18,27.80
2017,09,04,14,19,27.80
2017,09,04,14,20,27.90
2017,09,04,14,21,27.90
2017,09,04,14,22,28.10
2017,09,04,14,23,28.20
2017,09,04,14,24,28.30
2017,09,04,14,25,28.40
2017,09,04,14,26,28.40
2017,09,04,14,27,28.40
2017,09,04,14,28,28.40
2017,09,04,14,29,28.40
2017,09,04,14,30,28.40
2017,09,04,14,31,28.40
2017,09,04,14,32,28.50
2017,09,04,14,33,28.60
2017,09,04,14,34,28.60
2017,09,04,14,35,28.50
2017,09,04,14,36,28.40
2017,09,04,14,37,28.50
2017,09,04,14,38,28.50
2017,09,04,14,39,28.60
2017,09,04,14,40,28.70
2017,09,04,14,41,28.90
2017,09,04,14,42,29.00
2017,09,04,14,43,29.00
2017,09,04,14,44,29.10
2017,09,04,14,45,29.00
2017,09,04,14,46,29.00
2017,09,04,14,47,29.00
2017,09,04,14,48,29.10
2017,09,04,14,49,29.10
2017,09,04,14,50,29.20
2017,09,04,14,51,29.30
2017,09,04,14,52,29.40
2017,09,04,14,53,29.60
2017,09,04,14,54,29.70
2017,09,04,14,55,29.80
2017,09,04,14,56,29.80
2017,09,04,14,57,29.80
2017,09,04,14,58,29.90
2017,09,04,14,59,30.00
2017,09,04,15,00,30.10
2017,09,04,15,01,30.10
2017,09,04,15,02,30.00
2017,09,04,15,03,29.90
2017,09,04,15,04,29.80
2017,09,04,15,05,29.80
2017,09,04,15,06,29.80
2017,09,04,15,07,29.70
2017,09,04,15,08,29.50
2017,09,04,15,09,29.40
2017,09,04,15,10,29.30
2017,09,04,15,11,29.10
2017,09,04,15,12,29.00
2017,09,04,15,13,28.90
2017,09,04,15,14,28.70
2017,09,04,15,15,28.60
2017,09,04,15,16,28.50
2017,09,04,15,17,28.50
2017,09,04,15,18,28.50
2017,09,04,15,19,28.40
2017,09,04,15,20,28.30
2017,09,04,15,21,28.20
2017,09,04,15,22,28.10
2017,09,04,15,23,27.80
2017,09,04,15,24,27.60
2017,09,04,15,25,27.50
2017,09,04,15,26,27.40
2017,09,04,15,27,27.40
2017,09,04,15,28,27.30
2017,09,04,15,29,27.20
2017,09,04,15,30,27.20
2017,09,04,15,31,27.30
2017,09,04,15,32,27.40
2017,09,04,15,33,27.50
2017,09,04,15,34,27.70
2017,09,04,15,35,27.70
2017,09,04,15,36,27.80
2017,09,04,15,37,27.90
2017,09,04,15,38,27.90
2017,09,04,15,39,28.10
2017,09,04,15,40,28.20
2017,09,04,15,41,28.40
2017,09,04,15,42,28.50
2017,09,04,15,43,28.60
2017,09,04,15,44,28.60
2017,09,04,15,45,28.60
2017,09,04,15,46,28.60
2017,09,04,15,47,28.50
2017,09,04,15,48,28.50
2017,09,04,15,49,28.50
2017,09,04,15,50,28.60
2017,09,04,15,51,28.60
2017,09,04,15,52,28.60
2017,09,04,15,53,28.60
2017,09,04,15,54,28.60
2017,09,04,15,55,28.60
2017,09,04,15,56,28.70
2017,09,04,15,57,28.80
2017,09,04,15,58,28.90
2017,09,04,15,59,29.00
2017,09,04,16,00,29.00
2017,09,04,16,01,29.00
2017,09,04,16,02,29.00
2017,09,04,16,03,29.00
2017,09,04,16,04,29.00
2017,09,04,16,05,29.00
2017,09,04,16,06,28.90
2017,09,04,16,07,28.80
2017,09,04,16,08,28.60
2017,09,04,16,09,28.50
2017,09,04,16,10,28.30
2017,09,04,16,11,28.30
2017,09,04,16,12,28.30
2017,09,04,16,13,28.30
2017,09,04,16,14,28.30
2017,09,04,16,15,28.30
2017,09,04,16,16,28.30
2017,09,04,16,17,28.20
2017,09,04,16,18,28.20
2017,09,04,16,19,28.20
2017,09,04,16,20,28.20
2017,09,04,16,21,28.30
2017,09,04,16,22,28.40
2017,09,04,16,23,28.50
2017,09,04,16,24,28.50
2017,09,04,16,25,28.60
2017,09,04,16,26,28.60
2017,09,04,16,27,28.60
2017,09,04,16,28,28.70
2017,09,04,16,29,28.80
2017,09,04,16,30,28.80
2017,09,04,16,31,28.70
2017,09,04,16,32,28.70
2017,09,04,16,33,28.70
2017,09,04,16,34,28.70
2017,09,04,16,35,28.70
2017,09,04,16,36,28.70
2017,09,04,16,37,28.70
2017,09,04,16,38,28.70
2017,09,04,16,39,28.60
2017,09,04,16,40,28.60
2017,09,04,16,41,28.60
2017,09,04,16,42,28.60
2017,09,04,16,43,28.70
2017,09,04,16,44,28.70
2017,09,04,16,45,28.70
2017,09,04,16,46,28.70
2017,09,04,16,47,28.70
2017,09,04,16,48,28.80
2017,09,04,16,49,28.80
2017,09,04,16,50,28.80
2017,09,04,16,51,28.80
2017,09,04,16,52,28.80
2017,09,04,16,53,28.80
2017,09,04,16,54,28.80
2017,09,04,16,55,28.80
2017,09,04,16,56,28.70
2017,09,04,16,57,28.70
2017,09,04,16,58,28.70
2017,09,04,16,59,28.70
2017,09,04,17,00,28.70
2017,09,04,17,01,28.80
2017,09,04,17,02,28.70
2017,09,04,17,03,28.80
2017,09,04,17,04,28.80
2017,09,04,17,05,28.80
2017,09,04,17,06,28.80
2017,09,04,17,07,28.80
2017,09,04,17,08,28.80
2017,09,04,17,09,28.80
2017,09,04,17,10,28.80
2017,09,04,17,11,28.90
2017,09,04,17,12,28.90
2017,09,04,17,13,28.90
2017,09,04,17,14,28.90
2017,09,04,17,15,28.90
2017,09,04,17,16,28.90
2017,09,04,17,17,28.90
2017,09,04,17,18,28.90
2017,09,04,17,19,28.90